Location: Oriwa
(40.7500°S, 175.3333°E)
Time: 14:10:29
(UTC+00:00)

Cosmos 2016 Rocket - Pass Details

Date: 03 February 2023
Orbit: 946 x 1001 km, 83.0° (Epoch: 31 March)

Event Time Altitude Azimuth Distance (km) Brightness Sun altitude
Exits shadow 14:40:56 62° 320° (NW) 1,073 3.8 -25.5°
Maximum altitude 14:41:55 74° 262° (W) 995 3.9 -25.4°
Drops below altitude 10° 14:48:05 10° 176° (S) 2,700 7.1 -24.7°
Sets 14:50:37 0° 174° (S) 3,652 7.9 -24.4°
